User: anonymous
Location: Unspecified
(0.0000°N, 0.0000°E)
Time: 02:26:53
(UTC+02:00)
Language:

Cosmos 2263 Rocket - Orbit

View from above orbital plane
View from above orbital plane
View from above satellite
View from above satellite

Ground track
Ground track

The orbit data is extracted from the following two-line orbital elements,

1 22803U 93059B   14203.79037265 -.00000143  00000-0 -47441-4 0  3235
2 22803 070.9930 323.7852 0017874 207.9336 152.0829 14.16672038 78091
Epoch (UTC): 22 July 2014 18:58:08
Eccentricity: 0.0017874
inclination: 70.9930°
perigee height: 824 km
apogee height: 849 km
right ascension of ascending node: 323.7852°
argument of perigee: 207.9336°
revolutions per day: 14.16672038
mean anomaly at epoch: 152.0829°
orbit number at epoch: 7809

The dashed part of the orbit path shows where the satellite is in the earth's shadow,  

DLR